星链-6138 (STARLINK-6138 )

导读

STARLINK-6138是美国太空探索技术公司(SpaceX)星链(Starlink)星座组网卫星,于2023年7月16日发射升空。该卫星隶属于星链卫星互联网项目,旨在为全球提供高速低延迟互联网接入服务,尤其服务偏远地区与网络基础设施薄弱区域,是SpaceX大规模构建卫星互联网星座进程中,补充组网的一颗节点卫星。

Basic Information
目录编号:
57329
目录名称:
STARLINK-6138
国际标识:
2023-099B
轨道中心:
EARTH
卫星名称:
星链-6138
卫星全名:
星链-6138 (STARLINK-6138 )
卫星状态:
在轨 (已飞行1146 天)
发射日期:
2023-07-16 UTC
国别 :
美国 (US)
星等 :
--
Orbit Information
数据来源 国际轨道数据
星历时间: 2026-09-04T13:50:25+0800
7小时前
查看轨道信息
半长轴: 6861.204km
偏心率: 0.0001217
轨道倾角: 43.003°
近地点辐角 278.060°
升交点赤经 324.051°
平近点角 82.011°
近地点: 482.231km
远地点: 483.903km
周期: 94.267分钟
每日圈数: 15.275742
Detailed Information
固有亮度:
5
最大亮度:
2.5
卫星平台:
Starlink v1.5
覆盖范围:
全球
运营商:
太空探索技术公司
运营商所在国:
美国
制造商(研发单位):
太空探索技术公司
制造商所在国:
美国
使用方式:
暂无
Satellite Introduction
星链(Starlink)计划是由太空探索技术公司(SpaceX)提出的一个巨型低轨卫星互联网星座项目,计划在2019年至2024年间在太空搭建由约1.2万颗卫星组成的“星链”网络,其中1584颗将部署在地球上空550千米处的近地轨道,并从2020年开始工作。该卫星仍在工作。
2D Orbit Map
3D Orbit Map
Orbit Altitude Analysis Chart
Orbit Inclination Analysis Chart
Orbit Comprehensive Analysis Chart
View Comprehensive Chart
Conjunction Data List
Event ID Objects TCA Miss Dist (km) Collision Risk Probability Collision Risk Index (CRI) Action
CDM_260903-135105-732906-717621
2026-09-03T
13:51:06+0000
0.808 km
远距离
2.629362E-5 中风险 0.63
CDM_260905-143405-732905-949021
2026-09-05T
14:34:43+0000
1.391 km
极远距离
5.611746E-6 低风险 0.5
CDM_260905-213805-732905-949021
2026-09-05T
21:38:24+0000
1.923 km
极远距离
2.132456E-6 低风险 0.42
CDM_260830-162304-431605-732924
OBJECT G (44316)
2026-08-30T
16:23:30+0000
1.547 km
极远距离
1.816359E-6 低风险 0.4
CDM_260903-152505-732906-717622
2026-09-03T
15:25:15+0000
1.857 km
极远距离
1.773381E-6 低风险 0.4
CDM_260905-160805-732905-949021
2026-09-05T
16:08:52+0000
2.399 km
极远距离
1.305822E-6 低风险 0.37
CDM_260905-231205-732905-949021
2026-09-05T
23:12:33+0000
2.948 km
极远距离
9.586568E-7 极低风险 0.35